TimeAKST,TemperatureF,Dew PointF,Humidity,Sea Level PressureIn,VisibilityMPH,Wind Direction,Wind SpeedMPH,Gust SpeedMPH,PrecipitationIn,Events,Conditions,WindDirDegrees,DateUTC
12:53 AM,-2.9,-7.1,82,30.20,10.0,Variable,4.6,-,N/A,,Clear,0,2014-01-30 09:53:00
1:53 AM,-2.0,-7.1,79,30.20,10.0,SSE,4.6,-,N/A,,Clear,160,2014-01-30 10:53:00
3:53 AM,6.1,1.0,80,30.28,10.0,South,3.5,-,N/A,,Clear,180,2014-01-30 12:53:00
4:53 AM,5.0,1.0,84,30.28,10.0,Variable,4.6,-,N/A,,Clear,0,2014-01-30 13:53:00
5:53 AM,5.0,1.0,84,30.29,10.0,South,3.5,-,N/A,,Clear,180,2014-01-30 14:53:00
6:53 AM,3.0,-2.0,80,30.28,10.0,Variable,3.5,-,N/A,,Clear,0,2014-01-30 15:53:00
7:53 AM,1.9,-2.9,80,30.30,10.0,Calm,Calm,-,N/A,,Clear,0,2014-01-30 16:53:00
8:53 AM,1.0,-2.9,83,30.31,10.0,Variable,3.5,-,N/A,,Clear,0,2014-01-30 17:53:00
9:53 AM,-0.0,-4.0,83,30.32,10.0,Calm,Calm,-,N/A,,Clear,0,2014-01-30 18:53:00
10:53 AM,1.9,-2.9,80,30.32,10.0,Calm,Calm,-,N/A,,Unknown,0,2014-01-30 19:53:00
11:53 AM,7.0,3.0,84,30.31,10.0,Calm,Calm,-,N/A,,Clear,0,2014-01-30 20:53:00
12:53 PM,10.0,5.0,80,30.30,10.0,Calm,Calm,-,N/A,,Clear,0,2014-01-30 21:53:00
1:53 PM,7.0,3.0,84,30.31,10.0,Calm,Calm,-,N/A,,Clear,0,2014-01-30 22:53:00
2:53 PM,3.0,-0.9,84,30.32,10.0,Calm,Calm,-,N/A,,Clear,0,2014-01-30 23:53:00
3:53 PM,3.9,-0.9,80,30.32,10.0,Calm,Calm,-,N/A,,Overcast,0,2014-01-31 00:53:00
4:53 PM,3.0,-0.9,84,30.31,10.0,Calm,Calm,-,N/A,,Overcast,0,2014-01-31 01:53:00
5:53 PM,6.1,1.9,83,30.31,10.0,Calm,Calm,-,N/A,,Overcast,0,2014-01-31 02:53:00
6:53 PM,7.0,3.0,84,30.31,10.0,Calm,Calm,-,N/A,,Overcast,0,2014-01-31 03:53:00
7:53 PM,8.1,3.9,83,30.31,10.0,Calm,Calm,-,N/A,,Overcast,0,2014-01-31 04:53:00
8:53 PM,8.1,3.9,83,30.30,10.0,Calm,Calm,-,N/A,,Overcast,0,2014-01-31 05:53:00
9:53 PM,9.0,5.0,84,30.30,10.0,Calm,Calm,-,N/A,,Overcast,0,2014-01-31 06:53:00
10:53 PM,9.0,5.0,84,30.30,10.0,Calm,Calm,-,N/A,,Overcast,0,2014-01-31 07:53:00
11:53 PM,9.0,5.0,84,30.30,10.0,Calm,Calm,-,N/A,,Overcast,0,2014-01-31 08:53:00